Location: Lone Wolf Observatory
(41.0360°N, 89.2260°W)
Time: 10:10:12
(UTC-05:00)

Amateur Radio Satellites - All Passes

Search period start: 30 July 2014 09:40
Search period end: 31 July 2014 09:40
Location: Lone Wolf Observatory, 41.0360°N, 89.2260°W

Satellite Date Start Highest point End Downlink Frequencies (MHz)
Time Altitude Azimuth
Sapphire 30 Jul 09:44:01 09:49:26 65° 58° (ENE) 09:54:48 437.095 MHz 1200 baud AX-25 AFSK
Oscar 11 30 Jul 09:46:37 09:49:31 17° 93° (E) 09:52:24 145.825 FM, Beacon 2401.500 USB
FUNcube-1 30 Jul 10:13:08 10:14:30 11° 90° (E) 10:15:51 145.950 - 145.970 MHz USB
PCSat 30 Jul 10:17:21 10:22:44 64° 245° (WSW) 10:28:04 145.825 MHz
KITSAT 1 30 Jul 10:37:22 10:39:13 11° 352° (N) 10:41:05 435.175 FM
UKube-1 30 Jul 10:37:59 10:42:19 67° 286° (WNW) 10:46:37 145.840 MHz, 145.915 MHz
Oscar 11 30 Jul 11:21:48 11:25:52 41° 288° (WNW) 11:29:57 145.825 FM, Beacon 2401.500 USB
HO-68 30 Jul 11:27:12 11:33:28 35° 298° (WNW) 11:39:44 435.675 MHz FM
RS-15 30 Jul 11:27:57 11:33:52 16° 98° (E) 11:39:41 29.354 - 29.394 USB, Beacon 29.352 USB
Sapphire 30 Jul 11:28:50 11:32:17 17° 255° (WSW) 11:35:43 437.095 MHz 1200 baud AX-25 AFSK
FUNcube-1 30 Jul 11:47:08 11:51:15 58° 286° (WNW) 11:55:24 145.950 - 145.970 MHz USB
SO-50 30 Jul 12:18:01 12:22:24 62° 119° (ESE) 12:26:53 436.795 FM
KITSAT 1 30 Jul 12:34:38 12:39:02 15° 24° (NNE) 12:43:24 435.175 FM
Oscar 19 30 Jul 12:37:37 12:41:29 22° 64° (ENE) 12:45:22 437.125 CW, 437.150 USB
AO-Echo 30 Jul 12:43:50 12:46:08 13° 59° (ENE) 12:48:26 ?
Oscar 16 30 Jul 13:05:11 13:09:57 41° 70° (ENE) 13:14:44 437.025 USB, Beacon 2401.1428
JAS-1B 30 Jul 13:29:08 13:37:06 35° 59° (ENE) 13:45:38 435.800 - 435.900 CW/SSB
ITAMSAT 1 30 Jul 13:29:34 13:34:08 32° 67° (ENE) 13:38:42 435.822 SSB
RS-15 30 Jul 13:33:09 13:44:15 76° 118° (ESE) 13:55:09 29.354 - 29.394 USB, Beacon 29.352 USB
Uribyol 2 30 Jul 13:48:06 13:53:05 49° 71° (ENE) 13:58:05 436.500 FM
AO-27 30 Jul 13:48:41 13:53:41 48° 71° (ENE) 13:58:41 436.795 MHz FM
AO-7 30 Jul 13:51:57 13:54:23 12° 42° (NE) 13:56:48 29.400 - 29.500 MHz
TMSAT-1 30 Jul 13:56:31 13:59:58 18° 62° (ENE) 14:03:24 436.925 FM
SO-50 30 Jul 14:00:12 14:03:23 19° 318° (NW) 14:06:36 436.795 FM
UOSAT-12 30 Jul 14:10:04 14:14:35 61° 119° (ESE) 14:19:13 437.025 FM, 437.400 FM
Oscar 19 30 Jul 14:15:38 14:20:31 46° 261° (W) 14:25:26 437.125 CW, 437.150 USB
AO-Echo 30 Jul 14:18:48 14:24:07 89° 256° (WSW) 14:29:28 ?
Gurwin Techsat 1B 30 Jul 14:20:11 14:25:04 39° 69° (ENE) 14:29:58 435.225 FM
KITSAT 1 30 Jul 14:29:07 14:36:50 46° 50° (NE) 14:44:29 435.175 FM
Uosat F 30 Jul 14:43:52 14:44:40 10° 57° (ENE) 14:45:27 435.120 FM
Oscar 16 30 Jul 14:45:23 14:49:26 24° 266° (W) 14:53:30 437.025 USB, Beacon 2401.1428
ITAMSAT 1 30 Jul 15:08:56 15:13:34 32° 263° (W) 15:18:12 435.822 SSB
JAS-1B 30 Jul 15:18:00 15:26:51 66° 260° (W) 15:36:42 435.800 - 435.900 CW/SSB
Uribyol 2 30 Jul 15:29:03 15:32:48 20° 267° (W) 15:36:35 436.500 FM
AO-27 30 Jul 15:29:34 15:33:25 21° 267° (W) 15:37:18 436.795 MHz FM
TMSAT-1 30 Jul 15:34:07 15:39:21 63° 259° (W) 15:44:38 436.925 FM
AO-7 30 Jul 15:37:15 15:45:12 51° 64° (ENE) 15:53:09 29.400 - 29.500 MHz
Saudisat 1A 30 Jul 15:44:15 15:48:27 40° 51° (NE) 15:52:36 436.775 MHz
RS-15 30 Jul 15:47:44 15:57:38 36° 323° (NW) 16:07:31 29.354 - 29.394 USB, Beacon 29.352 USB
UOSAT-12 30 Jul 15:51:45 15:55:09 20° 318° (NW) 15:58:36 437.025 FM, 437.400 FM
Gurwin Techsat 1B 30 Jul 16:00:41 16:05:06 27° 265° (W) 16:09:34 435.225 FM
AO-Echo 30 Jul 16:02:28 16:03:33 11° 272° (W) 16:04:37 ?
Uosat F 30 Jul 16:17:34 16:22:36 81° 75° (ENE) 16:27:40 435.120 FM
KITSAT 1 30 Jul 16:24:41 16:32:11 44° 250° (WSW) 16:39:39 435.175 FM
JAS-2 30 Jul 17:03:28 17:09:37 27° 63° (ENE) 17:15:24 435.800 - 435.900 CW/SSB, 435.910 FM
OPAL 30 Jul 17:15:16 17:20:22 85° 106° (ESE) 17:25:32 ?
JAS-1B 30 Jul 17:15:21 17:19:14 13° 280° (W) 17:23:17 435.800 - 435.900 CW/SSB
Saudisat 1A 30 Jul 17:24:25 17:27:46 21° 248° (WSW) 17:31:06 436.775 MHz
AO-7 30 Jul 17:30:33 17:38:07 37° 262° (W) 17:45:44 29.400 - 29.500 MHz
Hamsat 30 Jul 17:34:44 17:38:30 34° 71° (ENE) 17:42:19 145.90 MHz
Uosat F 30 Jul 18:00:29 18:01:58 11° 271° (W) 18:03:28 435.120 FM
RS-15 30 Jul 18:07:04 18:14:31 20° 357° (N) 18:22:01 29.354 - 29.394 USB, Beacon 29.352 USB
SO-67 30 Jul 18:25:46 18:27:56 16° 68° (ENE) 18:30:07 435.3500 MHz FM
JAS-2 30 Jul 18:46:23 18:54:08 66° 259° (WSW) 19:01:23 435.800 - 435.900 CW/SSB, 435.910 FM
OPAL 30 Jul 18:56:17 18:58:34 13° 303° (WNW) 19:00:50 ?
Hamsat 30 Jul 19:11:33 19:14:34 19° 267° (W) 19:17:37 145.90 MHz
SO-50 30 Jul 19:11:39 19:12:40 11° 34° (NNE) 19:13:42 436.795 FM
STRAND 1 30 Jul 19:41:25 19:46:31 68° 102° (ESE) 19:51:35 ?
SO-67 30 Jul 19:57:45 20:00:47 28° 264° (W) 20:03:50 435.3500 MHz FM
UKube-1 30 Jul 20:01:01 20:01:56 11° 60° (ENE) 20:02:51 145.840 MHz, 145.915 MHz
HO-68 30 Jul 20:07:49 20:14:10 36° 63° (ENE) 20:20:31 435.675 MHz FM
RS-15 30 Jul 20:22:22 20:31:50 31° 32° (NNE) 20:41:28 29.354 - 29.394 USB, Beacon 29.352 USB
JAS-2 30 Jul 20:38:15 20:40:09 11° 275° (W) 20:42:01 435.800 - 435.900 CW/SSB, 435.910 FM
Oscar 11 30 Jul 20:42:33 20:44:52 15° 64° (ENE) 20:47:12 145.825 FM, Beacon 2401.500 USB
SO-50 30 Jul 20:49:36 20:54:16 55° 54° (NE) 20:59:00 436.795 FM
UOSAT-12 30 Jul 21:02:47 21:03:11 10° 32° (NNE) 21:03:36 437.025 FM, 437.400 FM
FUNcube-1 30 Jul 21:11:07 21:11:45 10° 62° (ENE) 21:12:22 145.950 - 145.970 MHz USB
MaSat-1 30 Jul 21:12:56 21:17:01 88° 295° (WNW) 21:21:49 437.345 MHz
STRAND 1 30 Jul 21:22:11 21:25:08 16° 299° (WNW) 21:28:03 ?
UKube-1 30 Jul 21:33:07 21:37:29 79° 257° (WSW) 21:41:53 145.840 MHz, 145.915 MHz
ISS 30 Jul 21:52:48 21:54:18 13° 129° (SE) 21:55:49 145.800 FM
HO-68 30 Jul 21:54:52 22:01:40 46° 260° (W) 22:08:31 435.675 MHz FM
AO-40 30 Jul 22:01:07 03:56:26 38° 183° (S) 09:29:44 Beacon 2401.320
Oscar 11 30 Jul 22:16:25 22:20:37 53° 260° (W) 22:24:51 145.825 FM, Beacon 2401.500 USB
SO-50 30 Jul 22:31:12 22:34:27 18° 250° (WSW) 22:37:42 436.795 FM
RS-15 30 Jul 22:34:44 22:45:50 88° 59° (ENE) 22:57:22 29.354 - 29.394 USB, Beacon 29.352 USB
UOSAT-12 30 Jul 22:39:50 22:44:28 51° 53° (NE) 22:49:01 437.025 FM, 437.400 FM
FUNcube-1 30 Jul 22:43:16 22:47:34 75° 258° (WSW) 22:51:49 145.950 - 145.970 MHz USB
MaSat-1 30 Jul 22:53:13 22:55:15 13° 317° (NW) 22:57:22 437.345 MHz
PCSat 30 Jul 23:17:56 23:21:15 17° 104° (ESE) 23:24:35 145.825 MHz
ISS 30 Jul 23:27:16 23:30:36 74° 325° (NW) 23:33:57 145.800 FM
UOSAT-12 31 Jul 00:20:56 00:24:13 19° 250° (WSW) 00:27:28 437.025 FM, 437.400 FM
Sapphire 31 Jul 00:25:33 00:30:52 62° 115° (ESE) 00:36:13 437.095 MHz 1200 baud AX-25 AFSK
RS-15 31 Jul 00:48:50 00:56:46 23° 259° (WSW) 01:04:58 29.354 - 29.394 USB, Beacon 29.352 USB
PCSat 31 Jul 00:58:42 01:04:04 67° 301° (WNW) 01:09:29 145.825 MHz
ISS 31 Jul 01:05:20 01:07:46 18° 344° (NNW) 01:10:13 145.800 FM
Oscar 16 31 Jul 01:18:22 01:21:08 14° 90° (E) 01:23:54 437.025 USB, Beacon 2401.1428
ITAMSAT 1 31 Jul 01:45:34 01:46:15 10° 88° (E) 01:46:55 435.822 SSB
Uribyol 2 31 Jul 02:02:04 02:05:27 17° 92° (E) 02:08:48 436.500 FM
AO-27 31 Jul 02:03:01 02:06:21 17° 92° (E) 02:09:39 436.795 MHz FM
Sapphire 31 Jul 02:10:33 02:14:43 22° 314° (NW) 02:18:54 437.095 MHz 1200 baud AX-25 AFSK
Oscar 19 31 Jul 02:27:00 02:32:09 64° 102° (ESE) 02:37:17 437.125 CW, 437.150 USB
AO-Echo 31 Jul 02:27:05 02:31:28 29° 95° (E) 02:35:42 ?
Gurwin Techsat 1B 31 Jul 02:37:45 02:40:47 15° 90° (E) 02:43:47 435.225 FM
ISS 31 Jul 02:43:40 02:45:29 14° 4° (N) 02:47:19 145.800 FM
PCSat 31 Jul 02:46:08 02:48:33 13° 322° (NW) 02:51:00 145.825 MHz
OPAL 31 Jul 02:53:31 02:56:55 19° 61° (ENE) 03:00:19 ?
Oscar 16 31 Jul 02:55:49 03:00:57 67° 287° (WNW) 03:06:05 437.025 USB, Beacon 2401.1428
JAS-1B 31 Jul 03:05:28 03:14:20 49° 96° (E) 03:21:52 435.800 - 435.900 CW/SSB
ITAMSAT 1 31 Jul 03:21:12 03:26:25 88° 284° (WNW) 03:31:35 435.822 SSB
Uribyol 2 31 Jul 03:40:13 03:45:16 56° 288° (WNW) 03:50:17 436.500 FM
AO-27 31 Jul 03:41:08 03:46:13 57° 288° (WNW) 03:51:16 436.795 MHz FM
AO-7 31 Jul 03:41:32 03:45:26 14° 88° (E) 03:49:18 29.400 - 29.500 MHz
TMSAT-1 31 Jul 03:50:05 03:55:16 53° 100° (E) 04:00:25 436.925 FM
AO-Echo 31 Jul 04:05:47 04:10:11 31° 293° (WNW) 04:14:27 ?
Oscar 19 31 Jul 04:07:44 04:10:57 17° 298° (WNW) 04:14:10 437.125 CW, 437.150 USB
Gurwin Techsat 1B 31 Jul 04:15:56 04:21:12 66° 287° (WNW) 04:26:27 435.225 FM
ISS 31 Jul 04:20:05 04:23:03 28° 24° (NNE) 04:26:00 145.800 FM
Uosat F 31 Jul 04:26:06 04:30:11 25° 95° (E) 04:34:14 435.120 FM
OPAL 31 Jul 04:30:34 04:35:23 53° 257° (WSW) 04:40:15 ?
JAS-1B 31 Jul 04:56:06 05:04:36 41° 298° (WNW) 05:12:00 435.800 - 435.900 CW/SSB
KITSAT 1 31 Jul 04:58:18 05:04:59 29° 106° (ESE) 05:11:39 435.175 FM
ITAMSAT 1 31 Jul 05:03:19 05:05:06 12° 302° (WNW) 05:06:54 435.822 SSB
STRAND 1 31 Jul 05:21:41 05:23:52 13° 59° (ENE) 05:26:04 ?
TMSAT-1 31 Jul 05:30:59 05:34:47 20° 297° (WNW) 05:38:34 436.925 FM
AO-7 31 Jul 05:31:06 05:39:29 77° 106° (ESE) 05:47:46 29.400 - 29.500 MHz
MaSat-1 31 Jul 05:31:34 05:36:04 27° 53° (NE) 05:40:23 437.345 MHz
PANSAT 31 Jul 05:38:50 05:40:35 13° 180° (S) 05:42:21 not established
ISS 31 Jul 05:56:39 05:59:52 44° 222° (SW) 06:03:05 145.800 FM
JAS-2 31 Jul 05:59:19 06:02:30 15° 88° (E) 06:05:32 435.800 - 435.900 CW/SSB, 435.910 FM
Uosat F 31 Jul 06:04:27 06:09:03 38° 291° (WNW) 06:13:38 435.120 FM
KITSAT 1 31 Jul 06:51:48 06:59:48 64° 305° (NW) 07:07:52 435.175 FM
Hamsat 31 Jul 06:55:50 07:00:09 74° 102° (ESE) 07:04:29 145.90 MHz
STRAND 1 31 Jul 06:57:11 07:02:20 85° 256° (WSW) 07:07:30 ?
MaSat-1 31 Jul 07:08:36 07:13:35 43° 252° (WSW) 07:18:14 437.345 MHz
SO-67 31 Jul 07:22:02 07:24:32 18° 94° (E) 07:27:01 435.3500 MHz FM
AO-7 31 Jul 07:25:01 07:31:26 26° 306° (NW) 07:37:51 29.400 - 29.500 MHz
Saudisat 1A 31 Jul 07:29:36 07:34:01 82° 303° (WNW) 07:38:28 436.775 MHz
JAS-2 31 Jul 07:42:31 07:48:20 66° 288° (WNW) 07:53:35 435.800 - 435.900 CW/SSB, 435.910 FM
PCSat 31 Jul 08:04:33 08:08:04 17° 42° (NE) 08:11:34 145.825 MHz
Hamsat 31 Jul 08:34:24 08:35:31 11° 298° (WNW) 08:36:38 145.90 MHz
KITSAT 1 31 Jul 08:51:30 08:56:59 19° 329° (NNW) 09:02:29 435.175 FM
SO-67 31 Jul 08:54:44 08:57:34 24° 289° (WNW) 09:00:24 435.3500 MHz FM
Saudisat 1A 31 Jul 09:12:15 09:14:19 13° 322° (NW) 09:16:23 436.775 MHz
Sapphire 31 Jul 09:13:41 09:18:56 48° 55° (NE) 09:24:10 437.095 MHz 1200 baud AX-25 AFSK
HO-68 31 Jul 09:22:31 09:28:59 36° 97° (E) 09:35:23 435.675 MHz FM
UKube-1 31 Jul 09:22:40 09:25:36 18° 93° (E) 09:28:31 145.840 MHz, 145.915 MHz
